Location: *
(45.9500°N, 9.0833°E)
Time: 20:29:39
(UTC+00:00)

Vanguard 2 Rocket - Pass Details

Date: 13 June 2021
Orbit: 555 x 3325 km, 32.9° (Epoch: 30 July)

Event Time Altitude Azimuth Distance (km) Brightness Sun altitude
Rises 19:10:37 0° 218° (SW) 7,261 11.5 -0.2°
Reaches altitude 10° 19:16:41 10° 209° (SSW) 6,072 11.0 -1.0°
Maximum altitude 19:30:57 30° 158° (SSE) 3,830 9.6 -3.0°
Drops below altitude 10° 19:41:02 10° 104° (ESE) 4,275 9.8 -4.4°
Sets 19:44:22 0° 93° (E) 4,899 10.2 -4.8°
